Location: Ladrillo (historical)
(32.8195°N, 117.2231°W)
Time: 04:02:51
(UTC+00:00)

MINOTAUR 4 R/B - Pass Details

Date: 26 May 2022
Orbit: 464 x 473 km, 98.0° (Epoch: 04 July)

Event Time Altitude Azimuth Distance (km) Brightness Sun altitude
Rises 12:14:31 0° 170° (S) 2,491 7.5 -6.2°
Reaches altitude 10° 12:16:33 10° 172° (S) 1,621 6.5 -5.9°
Maximum altitude 12:20:02 75° 258° (WSW) 491 3.9 -5.2°
Drops below altitude 10° 12:23:32 10° 344° (NNW) 1,639 6.9 -4.6°
Sets 12:25:36 0° 346° (NNW) 2,522 7.9 -4.2°
